San Antonio, TX

1:31 PM CST on December 05, 2016 (GMT -0600)
Stinson Municipal

Weather History for KSSF - September, 2013

Change the Weather History Date:

Tuesday, September 3, 2013

  Actual Average Record
Temperature  
Mean Temperature 88 °F -  
Max Temperature 102 °F 90 °F 106 °F (2000)
Min Temperature 75 °F 70 °F 66 °F (2004)
Cooling Degree Days 22    
Growing Degree Days 38 (Base 50)    
Moisture  
Dew Point 66 °F    
Average Humidity 52    
Maximum Humidity 78    
Minimum Humidity 25    
Precipitation  
Precipitation 0.00 in - - ()
Sea Level Pressure  
Sea Level Pressure 29.90 in    
Wind  
Wind Speed 2 mph (SSE)    
Max Wind Speed 12 mph    
Max Gust Speed -    
Visibility 10 miles    
Events      
Averages and records for this station are not official NWS values.
T = Trace of Precipitation, MM = Missing Value Source: NWS Daily Summary

Daily Weather History Graph

Daily Weather History Graph

Search for Another Location

Airport or City:

Trip Planner

Search our weather history database for the weather conditions in past years. The results will help you decide how hot, cold, wet, or windy it might be!

Date:

Astronomy

Sep. 03, 2013 Rise Set
Actual Time 7:12 AM CDT 7:53 PM CDT
Civil Twilight 6:48 AM CDT 8:17 PM CDT
Nautical Twilight 6:20 AM CDT 8:45 PM CDT
Astronomical Twilight 5:51 AM CDT 9:14 PM CDT
Moon 5:31 AM CDT (9/3) 6:39 PM CDT (9/3)
Length of Visible Light 13h 28m
Length of Day
12h 40m
Waning Crescent, 3% of the Moon is Illuminated
Sep 3
Waning Crescent
Sep 5
New
Sep 12
First Quarter
Sep 19
Full
Sep 26
Last Quarter

Hourly Weather History & Observations

Time (CDT) Temp. Heat Index Dew Point Humidity Pressure Visibility Wind Dir Wind Speed Gust Speed Precip Events Conditions
12:53 AM 82.0 °F 84.5 °F 66.9 °F 60% 29.91 in 10.0 mi Calm Calm - N/A   Clear
1:53 AM 78.1 °F - 66.9 °F 68% 29.91 in 10.0 mi Calm Calm - N/A   Clear
2:53 AM 79.0 °F - 66.9 °F 66% 29.90 in 10.0 mi Calm Calm - N/A   Clear
3:53 AM 77.0 °F - 68.0 °F 74% 29.90 in 10.0 mi NNE 3.5 mph - N/A   Clear
4:53 AM 77.0 °F - 68.0 °F 74% 29.90 in 10.0 mi Calm Calm - N/A   Clear
5:53 AM 78.1 °F - 68.0 °F 71% 29.91 in 10.0 mi Calm Calm - N/A   Scattered Clouds
6:05 AM 75.2 °F - 68.0 °F 78% 29.95 in 10.0 mi Calm Calm - N/A   Mostly Cloudy
6:26 AM 75.2 °F - 68.0 °F 78% 29.95 in 10.0 mi Calm Calm - N/A   Scattered Clouds
6:53 AM 75.9 °F - 66.9 °F 74% 29.92 in 10.0 mi Calm Calm - N/A   Clear
7:53 AM 77.0 °F - 68.0 °F 74% 29.93 in 10.0 mi Calm Calm - N/A   Clear
8:53 AM 82.9 °F 86.5 °F 69.1 °F 63% 29.95 in 10.0 mi Calm Calm - N/A   Clear
9:53 AM 84.9 °F 88.8 °F 69.1 °F 59% 29.97 in 10.0 mi Variable 3.5 mph - N/A   Clear
10:53 AM 90.0 °F 94.5 °F 69.1 °F 50% 29.97 in 10.0 mi Variable 4.6 mph - N/A   Clear
11:53 AM 93.9 °F 97.5 °F 66.9 °F 41% 29.96 in 10.0 mi SSW 8.1 mph - N/A   Clear
12:53 PM 95.0 °F 97.4 °F 64.9 °F 37% 29.94 in 10.0 mi Calm Calm - N/A   Clear
1:53 PM 97.0 °F 98.3 °F 63.0 °F 32% 29.92 in 10.0 mi ESE 5.8 mph - N/A   Clear
2:53 PM 100.9 °F 102.7 °F 62.1 °F 28% 29.89 in 10.0 mi Variable 5.8 mph - N/A   Clear
3:53 PM 100.9 °F 102.7 °F 62.1 °F 28% 29.86 in 10.0 mi Variable 3.5 mph - N/A   Mostly Cloudy
4:53 PM 100.9 °F 102.1 °F 61.0 °F 27% 29.84 in 10.0 mi Variable 4.6 mph - N/A   Clear
5:53 PM 100.9 °F 101.0 °F 59.0 °F 25% 29.83 in 10.0 mi Variable 6.9 mph - N/A   Clear
6:53 PM 100.0 °F 99.7 °F 57.9 °F 25% 29.83 in 10.0 mi SE 4.6 mph - N/A   Clear
7:53 PM 95.0 °F 94.8 °F 60.1 °F 31% 29.83 in 10.0 mi South 3.5 mph - N/A   Clear
8:53 PM 91.9 °F 92.9 °F 63.0 °F 38% 29.86 in 10.0 mi SE 3.5 mph - N/A   Clear
9:53 PM 91.0 °F 92.6 °F 64.0 °F 41% 29.87 in 10.0 mi SSE 9.2 mph - N/A   Clear
10:53 PM 89.1 °F 92.9 °F 68.0 °F 50% 29.89 in 10.0 mi South 11.5 mph - N/A   Clear
11:53 PM 87.1 °F 91.3 °F 69.1 °F 55% 29.89 in 10.0 mi South 6.9 mph - N/A   Clear